TIME,DELAY(SENSOR),PRES,OXYGEN,RAWTEMP,T(OPTODE),TCPHASE,FLUOR,BETA(BETA700),BETA(BETA412),BETA(BETA440),CDOM,C(CSC),ED(ED412.40),ED(ED444.00),ED(ED489.70),ED(ED554.30),LU(LU411.80),LU(LU443.40),LU(LU489.60),LU(LU554.10),COMP,TILTX,TILTY,CHECK
1360208408,5809,878.8800048828125000,43.7159996032714840,659.7307739257812000,4.6368350982666020,54.4432411193847660,53,100,88,79,80,14967,2147753334,2147423634,2148007634,2147873334,2147640978,2147058797,2148258624,2147194240,466,4,13,38405
1360212004,5807,957.4199829101562000,51.0453910827636700,668.0241088867188000,4.3634471893310550,53.5018692016601560,52,99,86,79,80,14972,2147754560,2147420041,2148004809,2147875108,2147640877,2147060141,2148260242,2147194541,3371,4,13,48266
1360215604,5810,981.4899902343750000,52.5658988952636700,670.0213012695312000,4.2974929809570310,53.3182792663574200,52,98,88,80,80,14976,2147756946,2147425124,2148007689,2147873225,2147643565,2147059264,2148254802,2147196214,3027,4,13,3836
1360219204,5808,987.2299804687500000,53.3892288208007800,671.2651977539062000,4.2563929557800290,53.2271385192871100,52,99,88,79,80,14974,2147757641,2147422116,2148008612,2147871890,2147644516,2147054189,2148257398,2147195739,3570,4,14,34621
1360222804,5809,996.9299926757812000,52.2689514160156250,671.0336303710938000,4.2640500068664550,53.3721199035644500,52,97,87,78,80,14967,2147755501,2147423177,2148005915,2147875273,2147642669,2147056466,2148263890,2147198619,3270,4,13,46769
1360226404,5809,994.4400024414062000,51.8221702575683600,671.0396118164062000,4.2638511657714840,53.4327392578125000,52,99,85,79,81,14969,2147755117,2147423195,2148009892,2147876672,2147644827,2147056493,2148261357,2147197312,3432,4,13,55538
1360230004,5806,990.1400146484375000,53.6998100280761700,672.1203002929688000,4.2281298637390140,53.1974487304687500,52,98,86,79,80,14972,2147756041,2147426148,2148006756,2147873627,2147645522,2147062244,2148265417,2147200301,158,4,13,36184
1360233604,5806,991.2000122070312000,53.4437904357910160,672.2232055664062000,4.2247300148010250,53.2276916503906250,53,97,88,79,81,14970,2147753764,2147422253,2148007908,2147874633,2147642605,2147061750,2148255323,2147197595,214,4,13,47967
1360237204,5807,991.1300048828125000,53.2223091125488300,672.7340087890625000,4.2078399658203125,53.2639999389648440,52,100,91,82,79,14970,2147757705,2147420598,2148012598,2147872548,2147641270,2147059757,2148257892,2147195392,309,4,13,49194
1360240804,5811,998.5000000000000000,51.7216606140136700,674.8502197265625000,4.1378421783447270,53.4996681213378900,52,99,85,80,82,14968,2147757330,2147421760,2148010057,2147875017,2147642413,2147060269,2148255862,2147194176,184,4,13,65469
1360244404,5808,1002.9299926757812000,52.7192611694335940,672.7706298828125000,4.2066330909729000,53.3357200622558600,52,97,87,78,81,14970,2147755392,2147422107,2148009106,2147872100,2147639990,2147055570,2148267712,2147199533,3344,4,14,44518
1360248004,5808,996.6599731445312000,52.7307014465332000,672.3729858398438000,4.2197761535644530,53.3278999328613300,53,97,86,79,80,14966,2147759241,2147426468,2148009453,2147874569,2147642989,2147056621,2148258825,2147197220,401,4,13,10344
1360251604,5807,1004.7600097656250000,53.1511993408203100,671.5194702148438000,4.2479882240295410,53.2623481750488300,52,98,87,79,80,14969,2147757494,2147425298,2148008768,2147873088,2147637449,2147054793,2148255643,2147198838,3536,4,13,34169
1360255204,5809,999.0900268554688000,53.2359008789062500,672.0911254882812000,4.2290949821472170,53.2574195861816400,53,99,84,82,80,14970,2147756571,2147425828,2148010258,2147874605,2147644379,2147057984,2148259483,2147196946,3400,4,13,9533
1360258804,5809,1007.7000122070312000,52.1146507263183600,672.7495727539062000,4.2073230743408200,53.4181098937988300,53,97,85,79,80,14966,2147757869,2147424475,2148011995,2147871936,2147642596,2147059492,2148258075,2147198144,173,4,13,50894
1360262404,5808,1008.8499755859375000,51.8259811401367200,672.8887939453125000,4.2027230262756350,53.4599113464355500,52,98,87,80,80,14966,2147756973,2147421842,2148010358,2147877357,2147642285,2147061504,2148258331,2147195547,3336,4,13,44791
1360266004,5806,1003.3599853515625000,53.0355300903320300,672.3782958984375000,4.2196011543273930,53.2890090942382800,53,97,88,80,81,14969,2147755209,2147427035,2148007634,2147873645,2147642386,2147060461,2148262976,2147197522,130,4,13,13564
1360269604,5811,1013.8200073242188000,51.7985992431640600,671.5894775390625000,4.2456760406494140,53.4466705322265600,54,98,87,79,81,14964,2147753728,2147425883,2148009307,2147874450,2147639542,2147058944,2148255634,2147195638,105,4,13,207
1360273204,5812,1019.7199707031250000,50.8579292297363300,671.3093872070312000,4.2549319267272950,53.5700302124023440,53,98,90,80,81,14965,2147758582,2147424256,2148008210,2147877275,2147642130,2147061558,2148259428,2147199817,737,4,13,46487
1360276804,5811,1004.4799804687500000,51.8853797912597660,671.5883789062500000,4.2457098960876465,53.4290199279785160,52,99,82,78,80,14969,2147754870,2147422692,2148011456,2147871835,2147641481,2147057051,2148255360,2147198884,3201,4,13,4218
1360280404,5811,1003.5999755859375000,53.0466918945312500,671.8399047851562000,4.2374000549316410,53.2789497375488300,52,101,86,78,80,14967,2147759561,2147424064,2148009152,2147872859,2147638573,2147058130,2148255542,2147197988,446,4,13,19496
1360284004,5807,1005.4500122070312000,52.4241294860839840,672.5930175781250000,4.2125029563903810,53.3697509765625000,52,100,84,80,79,14965,2147758610,2147424018,2148006418,2147874148,2147641179,2147055158,2148250697,2147198061,199,4,13,39003
1360287604,5808,1013.8499755859375000,52.5477104187011700,672.6898193359375000,4.2093048095703125,53.3589210510253900,52,98,90,80,79,14969,2147756891,2147424804,2148010349,2147870720,2147641344,2147055533,2148259648,2147195565,3591,4,14,57436
1360291204,5808,1011.0999755859375000,52.6237907409668000,671.4498291015625000,4.2502942085266110,53.3286705017089840,51,98,86,78,80,14964,2147758052,2147428032,2148009115,2147873773,2147641508,2147054052,2148256109,2147199195,186,4,13,31964
1360294804,5805,1008.3099975585938000,51.9138908386230500,671.5549926757812000,4.2468171119689940,53.4292297363281250,52,97,88,79,80,14963,2147758930,2147425837,2148010468,2147872950,2147642624,2147058916,2148258121,2147199808,3498,4,13,65493
1360298404,5811,1001.7600097656250000,52.1973114013671900,673.1033935546875000,4.1956248283386230,53.4079399108886700,52,98,86,79,81,14964,2147756150,2147423588,2148008283,2147871963,2147639963,2147055917,2148262125,2147195748,32,4,13,39809
1360302004,5808,1001.8900146484375000,51.2947196960449200,674.0405273437500000,4.1646308898925780,53.5464591979980500,52,97,87,79,80,14962,2147755227,2147421979,2148009216,2147875145,2147644708,2147054180,2148261275,2147196681,235,4,13,57537
1360305604,5809,1008.3499755859375000,50.8073692321777340,674.4484863281250000,4.1511340141296390,53.6175689697265600,52,100,86,79,81,14962,2147754834,2147424475,2148008548,2147874779,2147642870,2147055213,2148260434,2147197714,3395,4,13,49945
1360309204,5807,1004.5499877929688000,50.6352195739746100,674.4998168945312000,4.1494388580322270,53.6393508911132800,52,97,86,79,81,14963,2147757211,2147426651,2148010870,2147874934,2147643072,2147058477,2148259721,2147199021,3278,4,13,490
1360312804,5810,996.5399780273438000,50.1475296020507800,677.0167846679688000,4.0661239624023440,53.7353515625000000,52,100,85,80,81,14961,2147758116,2147426221,2148009280,2147873371,2147640667,2147056027,2148264603,2147201051,455,4,13,12879
1360316404,5810,1005.8800048828125000,50.6426696777343750,677.4259033203125000,4.0525779724121090,53.6783714294433600,52,100,86,78,80,14960,2147756827,2147425828,2148009682,2147872228,2147642395,2147054994,2148263451,2147198793,3539,4,13,26201
1360320004,5808,1003.6199951171875000,50.2725296020507800,676.9332275390625000,4.0688929557800290,53.7223091125488300,53,97,87,79,80,14957,2147754816,2147424877,2148010422,2147874157,2147643712,2147053613,2148260132,2147192804,163,4,13,11982
1360323604,5810,1003.5100097656250000,50.0734100341796900,676.9694213867188000,4.0676941871643070,53.7465782165527340,53,98,84,78,80,14957,2147757650,2147424082,2148011072,2147874898,2147642541,2147055268,2148258514,2147196434,14,4,13,178
1360327204,5809,1010.6699829101562000,50.0489387512207000,676.1182250976562000,4.0958790779113770,53.7378883361816400,52,98,88,79,81,14959,2147757184,2147426413,2148009398,2147873298,2147639826,2147051657,2148264292,2147195382,162,4,13,45931
1360330804,5812,1014.5300292968750000,50.3520584106445300,675.1674804687500000,4.1273422241210940,53.6890296936035160,52,97,85,79,80,14958,2147755821,2147426166,2148007716,2147872704,2147642523,2147056630,2148255177,2147199140,382,4,13,55115
1360334404,5810,1018.8400268554688000,52.6266403198242200,671.6967163085938000,4.2421340942382810,53.3301506042480500,52,98,89,78,79,14962,2147758957,2147425737,2148007341,2147875584,2147639616,2147050541,2148263049,2147200036,2928,4,13,59168
1360338004,5807,1019.1900024414062000,52.1854591369628900,671.3300781250000000,4.2542500495910645,53.3887290954589840,51,96,87,78,81,14957,2147759158,2147424210,2148008155,2147875081,2147641755,2147057060,2148255670,2147197165,99,4,13,39714
1360341604,5810,1012.4299926757812000,52.1664695739746100,671.3986206054688000,4.2519860267639160,53.3922500610351560,52,97,87,77,80,14952,2147757723,2147426075,2148007643,2147873965,2147640329,2147059465,2148260544,2147197632,90,4,13,38758
1360345204,5807,1014.6599731445312000,51.9743309020996100,672.7971191406250000,4.2057528495788570,53.4327507019043000,52,97,91,82,81,14952,2147756352,2147424676,2148008813,2147874130,2147644388,2147059867,2148257024,2147196845,449,4,13,16660
1360348804,5810,1020.8499755859375000,52.6646385192871100,671.5734863281250000,4.2462058067321780,53.3288993835449200,53,98,85,79,79,14956,2147758820,2147425883,2148008822,2147873700,2147638619,2147051044,2148258075,2147199643,3374,4,13,27551
1360352404,5807,1013.5399780273438000,51.9814186096191400,671.7634277343750000,4.2399268150329590,53.4211082458496100,52,157,88,79,81,14953,2147760859,2147425682,2148007643,2147873755,2147638656,2147052077,2148258102,2147197184,3484,4,13,19107
1360353655,5809,1007.9400024414062000,52.1739692687988300,672.4479980468750000,4.2172970771789550,53.4009208679199200,52,102,87,79,80,14970,2147753856,2147423725,2148010029,2147874139,2147640841,2147057609,2148251712,2147200484,3470,4,14,61390
